Hourly Data Report for August 22, 2005

TORONTO CITY
ONTARIO

43°40'00.000" N
79°24'00.000" W
112.50 m
6158355
71508
XTO

Download Data

Hourly Data (August 2005)
Hourly Data Report for August 22, 2005
TIME
LST
Temp Definition
°C
Dew Point Definition
°C
Rel Hum Definition
%
Precip. Amount Definition
mm

Wind Dir Definition
10's deg

Wind Spd Definition
km/h
Visibility Definition
km
Stn Press Definition
kPa
Hmdx Definition


Wind Chill Definition


Weather Definition


00:00 18.1 13.6 75   LegendMM LegendMM   99.83     LegendNANA
01:00 18.0 13.8 76   LegendMM LegendMM   99.84     LegendNANA
02:00 17.8 13.7 77   LegendMM LegendMM   99.83     LegendNANA
03:00 17.8 13.3 75   LegendMM LegendMM   99.80     LegendNANA
04:00 17.2 13.1 77   LegendMM LegendMM   99.80     LegendNANA
05:00 17.3 12.6 74   LegendMM LegendMM   99.81     LegendNANA
06:00 16.8 12.6 76   LegendMM LegendMM   99.84     LegendNANA
07:00 17.3 12.4 73   LegendMM LegendMM   99.89     LegendNANA
08:00 18.2 12.9 71   LegendMM LegendMM   99.91     LegendNANA
09:00 19.0 13.1 69   LegendMM LegendMM   99.93     LegendNANA
10:00 19.3 12.6 65   LegendMM LegendMM   99.96     LegendNANA
11:00 20.7 12.9 61   LegendMM LegendMM   99.96     LegendNANA
12:00 20.6 12.1 58   LegendMM LegendMM   99.94     LegendNANA
13:00 19.8 13.4 67   LegendMM LegendMM   99.99     LegendNANA
14:00 20.7 13.1 62   LegendMM LegendMM   100.00     LegendNANA
15:00 21.0 12.9 60   LegendMM LegendMM   100.00     LegendNANA
16:00 20.6 13.0 62   LegendMM LegendMM   100.05     LegendNANA
17:00 19.7 13.8 69   LegendMM LegendMM   100.07     LegendNANA
18:00 19.5 12.7 65   LegendMM LegendMM   100.08     LegendNANA
19:00 18.4 12.8 70   LegendMM LegendMM   100.11     LegendNANA
20:00 17.7 12.9 73   LegendMM LegendMM   100.16     LegendNANA
21:00 17.5 12.5 72   LegendMM LegendMM   100.16     LegendNANA
22:00 17.4 12.5 73   LegendMM LegendMM   100.20     LegendNANA
23:00 17.2 12.5 74   LegendMM LegendMM   100.23     LegendNANA

Notes on Data Quality.

Legend

  • E = Estimated
  • M = Missing
  • NA = Not Available*
  • [empty] = Indicates an unobserved value
Date modified: